#timestamp,LO_Frequency,Hit,StdDev 
1598871615.3,286047002.2,N
1598871635.2,286047000.2,N
1598871655.0,286047002.4,N
1598871655.9,286047002.4,N
1598871675.8,286047002.7,N
1598871695.6,286047000.4,N
1598871715.4,286046998.6,N
1598871735.3,286046998.7,N
1598871755.1,286046999.0,N
1598871775.8,286046998.8,N
1598871795.7,286046999.5,N
1598871815.5,286046999.1,N
1598871835.4,286046999.1,N
1598871855.2,286046998.5,N
1598871875.0,286046998.3,N
1598871875.9,286046998.3,N
1598871895.8,286046996.7,N
1598871915.6,286046997.9,N
1598871935.4,286046997.9,N
1598871955.3,286046997.1,N
1598871975.1,286046996.7,N
1598871995.9,286046996.9,N
1598872015.7,286046997.0,N
1598872035.5,286046997.6,N
1598872055.4,286046997.6,N
1598872075.2,286046994.9,N
1598872095.0,286046995.8,N
1598872095.9,286046995.8,N
1598872115.8,286046995.0,N
1598872135.6,286046997.7,N
1598872155.5,286046995.5,N
1598872175.3,286046995.0,N
1598872195.1,286046996.7,N
1598872215.9,286046995.0,N
1598872235.7,286046998.7,N
1598872255.5,286046997.1,N
1598872275.4,286046996.6,N
1598872295.2,286046997.2,N
1598872315.1,286046997.6,N
1598872316.0,286046997.6,N
1598872335.8,286046997.3,N
1598872355.6,286046997.9,N
1598872375.5,286046995.4,Y
1598872395.3,286046999.1,P
1598872415.2,286046996.6,P
1598872435.9,286046997.0,N
1598872455.7,286046996.5,Y
1598872475.6,286046999.8,P
1598872495.4,286047000.4,N
1598872515.3,286046999.7,N
1598872535.1,286047000.1,N
1598872555.8,286047002.2,N
1598872575.7,286047002.3,N
1598872595.5,286047002.7,N
1598872615.4,286047000.5,N
1598872635.2,286047000.1,N
1598872655.0,286047000.3,N
1598872655.9,286047000.3,N
1598872675.8,286046999.8,N
1598872695.6,286047000.6,N
1598872715.4,286046998.2,N
1598872735.3,286047000.8,N
1598872755.1,286047000.5,N
1598872775.9,286047000.6,N
1598872795.7,286047002.8,N
1598872815.5,286046999.7,N
1598872835.4,286047000.4,N
1598872855.2,286047000.5,N
1598872875.0,286046998.7,N
1598872875.9,286046998.7,N
1598872895.8,286046998.3,N
1598872915.6,286046999.9,N
1598872935.5,286047000.9,N
1598872955.3,286047000.3,N
1598872975.1,286046999.7,N
1598872995.9,286046998.5,N
1598873015.7,286046998.9,N
1598873035.5,286046999.4,N
1598873055.4,286047000.8,N
1598873075.2,286047000.4,N
1598873095.1,286046998.4,N
1598873096.0,286046998.4,N
1598873115.8,286047000.7,N
1598873135.6,286047000.5,N
1598873155.5,286047001.2,N
1598873175.3,286046998.5,N
1598873195.2,286046998.6,N
1598873215.9,286046998.1,N
1598873235.7,286046998.8,N
1598873255.6,286046998.8,N
1598873275.4,286046998.1,N
1598873295.2,286047000.2,N
1598873315.1,286047002.8,N
1598873316.0,286047002.8,N
1598873335.8,286047002.8,N
1598873355.7,286047002.4,N
1598873375.5,286047000.6,N
1598873395.3,286046999.8,N
1598873415.2,286046999.8,N
1598873435.0,286047002.8,N
1598873435.9,286047002.8,N
1598873455.7,286047001.4,N
1598873475.6,286046999.7,N
1598873495.4,286047000.0,N
1598873515.3,286047002.8,N
1598873535.1,286047002.7,N
1598873536.0,286047002.7,N
1598873555.8,286046999.7,N
1598873575.7,286047011.9,Y
1598873595.5,286047001.2,P
1598873615.4,286046999.7,N
1598873635.2,286047000.3,N
1598873655.0,286046999.7,N
1598873655.9,286046999.7,N
1598873675.8,286047000.8,N
1598873695.6,286046999.9,N
1598873715.4,286047001.0,N
1598873735.3,286047000.3,N
1598873755.1,286047000.4,N
1598873775.9,286046999.8,N
1598873795.7,286047000.0,N
1598873815.5,286046999.9,N
1598873835.4,286047000.3,N
1598873855.2,286047002.5,Y
1598873875.1,286046999.9,P
1598873876.0,286046999.9,N
1598873895.8,286046999.9,N
1598873915.6,286047002.3,Y
1598873935.5,286047002.2,P
1598873955.3,286047002.8,N
1598873975.1,286046999.8,N
1598873995.9,286047000.5,N
1598874015.7,286047001.0,N
1598874035.6,286047000.8,N
1598874055.4,286047000.9,N
1598874075.2,286047000.6,N
1598874095.1,286047001.9,N
1598874096.0,286047001.9,N
1598874115.8,286047002.4,N
1598874135.6,286047002.2,N
1598874155.5,286047001.5,N
1598874175.3,286047001.7,N
1598874195.2,286047002.5,N
1598874215.9,286047001.5,N
1598874235.7,286047004.1,Y
1598874255.6,286047002.7,P
1598874275.4,286047000.4,N
1598874295.3,286047000.7,N
1598874315.1,286047000.8,N
1598874316.0,286047000.8,N
1598874335.8,286047002.7,Y
1598874355.7,286046998.9,P
1598874375.5,286046996.7,N
1598874395.4,286046997.0,N
1598874415.2,286046996.6,N
1598874435.0,286046996.6,N
1598874435.9,286046996.6,N
1598874455.8,286046996.5,N
1598874475.6,286046997.2,N
1598874495.4,286046997.1,N
1598874515.3,286046997.0,N
1598874535.1,286046999.0,N
1598874555.9,286046997.8,N
1598874575.7,286046996.8,N
1598874595.5,286046996.8,N
1598874615.4,286046999.4,N
1598874635.2,286046996.7,N
1598874655.0,286046999.6,N
1598874656.0,286046999.6,N
1598874675.8,286046997.0,N
1598874695.6,286046996.7,N
1598874715.5,286046999.0,N
1598874735.3,286046998.1,N
1598874755.1,286046998.7,N
1598874775.9,286046998.9,N
1598874795.7,286046996.5,N
1598874815.6,286046996.5,N
1598874835.4,286046997.4,N
1598874855.2,286046996.7,N
1598874875.1,286046996.9,N
1598874876.0,286046996.9,N
1598874895.8,286046997.2,N
1598874915.6,286046997.1,N
1598874935.5,286046997.3,N
1598874955.3,286046999.2,N
1598874975.1,286047001.0,N
1598874995.9,286047001.1,N
1598875015.7,286046999.0,N
1598875035.6,286046996.9,N
1598875055.4,286047001.0,N
1598875075.2,286047000.3,N
1598875095.1,286046999.3,N
1598875096.0,286046999.3,N
1598875115.8,286046999.5,N
1598875135.6,286046999.3,N
1598875155.5,286046999.0,N
1598875175.3,286046998.9,N
1598875195.2,286046998.1,N
